Location: Nelson
(41.2830°S, 173.2830°E)
Time: 22:54:03
(UTC+13:00)

ISS - Pass Details

Date: 01 February 2019
Orbit: 403 x 411 km, 51.6° (Epoch: 16 February)

Event Time Altitude Azimuth Distance (km) Brightness Sun altitude
Exits shadow 03:48:09 14° 79° (E) 1,284 -1.1 -24.3°
Drops below altitude 10° 03:48:55 10° 90° (E) 1,471 -0.6 -24.2°
Sets 03:51:35 0° 112° (ESE) 2,362 0.9 -24.0°
